SCP
0 0 0 0 0 0 0 0 0 0 0 0 0 0 0 0 0 0 0 0 0 0
0 0 0 0 0 0 0 0 0 0 0 0 0 0 0 0 0 0 0 0 0 0
0 0 0 0 0 0 0 0 0 0 0 0 0 0 0 0 0 0 0 0 0 0
0 0 0 0 0 0 0 0 0 0 0 0 0 0 0 0 0 0 0 0 0 0
0 0 0 0 0 0 0 0 0 0 0 0 0 0 0 0 0 0 0 0 0 0
0 0 0 0 0 0 0 0 0 0 0 0 0 0 0 0 0 0 0 0 0 0
0 0 0 0 0 0 0 0 0 0 0 0 0 0 0 0 0 0 0 0 0 0
0 0 0 0 0 0 0 0 0 0 0 0 0 0 0 0 0 0 0 0 0 0
0 0 0 0 0 0 0 0 0 0 0 0 0 0 0 0 0 0 0 0 0 0
0 0 0 0 0 0 0 0 0 0 0 0 0 0 0 0 0 0 0 0 0 0
0 0 0 0 0 0 0 0 0 0 0 0 0 0 0 0 0 0 0 0 0 0
0 0 0 0 0 0 0 0 0 0 0 0 0 0 0 0 0 0 0 0 0 0
0 0 0 0 0 0 0 0 0 0 0 0 0 0 0 0 0 0 0 0 0 0
0 0 0 0 0 0 0 0 0 0 0 0 0 0 0 0 0 0 0 0 0 0
Wind_Speed_500mb
23 25 27 28 31 33 34 33 32 36 30 25 26 27 29 31 26 26 30 33 36 38
20 22 24 25 27 28 29 29 28 29 27 25 22 25 28 34 26 24 24 27 31 31
19 21 24 27 27 28 28 28 27 28 28 28 28 25 21 21 28 31 31 27 29 34
19 21 24 26 28 29 30 30 30 30 31 31 30 29 29 28 26 25 27 29 27 29
19 19 21 23 25 26 27 28 28 28 28 28 28 28 27 26 26 26 26 28 28 31
21 19 19 22 23 25 27 28 28 27 25 25 25 25 22 20 20 22 23 23 26 29
26 22 20 21 23 25 28 28 27 24 23 22 22 22 18 17 17 18 19 20 23 25
31 25 22 21 22 24 26 25 23 20 19 17 17 18 17 18 17 17 17 18 18 21
37 30 25 22 22 23 23 22 20 17 16 16 15 19 18 16 15 16 15 16 18 19
42 35 29 24 23 23 22 20 18 15 14 13 13 19 16 14 14 16 17 18 18 17
46 39 32 27 24 24 22 19 17 15 14 14 14 16 17 14 14 17 20 20 20 17
49 42 35 27 25 25 24 21 18 16 16 15 14 15 20 20 18 19 20 22 22 20
49 40 39 30 25 25 24 21 19 18 17 17 16 16 20 23 20 18 20 20 21 21
54 44 39 34 24 24 25 22 20 20 19 18 18 19 21 24 19 18 20 23 21 19
Wind_Direction_500mb
351 352 352 352 351 351 346 342 345 346 341 347 343 343 337 316 300 299 298 301 302 293
345 348 347 346 348 349 351 350 345 342 342 338 337 337 343 341 321 307 323 328 321 317
330 335 338 340 340 339 338 338 338 337 334 331 329 327 329 331 321 324 320 323 325 325
317 327 333 337 339 339 338 337 333 329 327 328 331 332 326 321 322 324 322 321 326 326
294 309 322 328 330 331 331 331 330 329 328 328 327 326 330 329 328 328 330 335 336 338
278 291 306 316 323 327 330 331 331 331 330 332 333 333 336 341 344 344 346 349 352 355
266 277 292 306 317 325 329 331 333 335 339 345 349 347 352 353 354 356 356 356 1 5
256 264 276 292 307 317 323 327 329 334 338 345 347 349 354 354 354 354 354 353 356 355
252 257 265 280 295 308 317 321 325 330 333 338 340 341 344 349 349 349 349 346 349 347
248 252 260 272 285 297 309 315 316 318 318 321 325 324 332 339 341 340 339 339 344 351
244 247 252 264 278 290 300 305 304 302 302 304 310 319 339 345 342 335 330 328 329 333
238 239 247 256 273 287 294 297 294 290 289 289 294 301 313 342 340 339 332 328 324 321
233 238 245 250 266 281 287 287 289 286 280 278 279 283 291 314 325 329 325 326 329 326
228 229 236 246 253 274 280 280 282 279 279 277 276 281 285 296 311 317 317 319 324 327
Wind_Speed_850mb
23 25 27 28 31 33 34 33 32 36 30 25 26 27 29 31 26 26 30 33 36 38
20 22 24 25 27 28 29 29 28 29 27 25 22 25 28 34 26 24 24 27 31 31
19 21 24 27 27 28 28 28 27 28 28 28 28 25 21 21 28 31 31 27 29 34
19 21 24 26 28 29 30 30 30 30 31 31 30 29 29 28 26 25 27 29 27 29
19 19 21 23 25 26 27 28 28 28 28 28 28 28 27 26 26 26 26 28 28 31
21 19 19 22 23 25 27 28 28 27 25 25 25 25 22 20 20 22 23 23 26 29
26 22 20 21 23 25 28 28 27 24 23 22 22 22 18 17 17 18 19 20 23 25
31 25 22 21 22 24 26 25 23 20 19 17 17 18 17 18 17 17 17 18 18 21
37 30 25 22 22 23 23 22 20 17 16 16 15 19 18 16 15 16 15 16 18 19
42 35 29 24 23 23 22 20 18 15 14 13 13 19 16 14 14 16 17 18 18 17
46 39 32 27 24 24 22 19 17 15 14 14 14 16 17 14 14 17 20 20 20 17
49 42 35 27 25 25 24 21 18 16 16 15 14 15 20 20 18 19 20 22 22 20
49 40 39 30 25 25 24 21 19 18 17 17 16 16 20 23 20 18 20 20 21 21
54 44 39 34 24 24 25 22 20 20 19 18 18 19 21 24 19 18 20 23 21 19
Wind_Direction_850mb
351 352 352 352 351 351 346 342 345 346 341 347 343 343 337 316 300 299 298 301 302 293
345 348 347 346 348 349 351 350 345 342 342 338 337 337 343 341 321 307 323 328 321 317
330 335 338 340 340 339 338 338 338 337 334 331 329 327 329 331 321 324 320 323 325 325
317 327 333 337 339 339 338 337 333 329 327 328 331 332 326 321 322 324 322 321 326 326
294 309 322 328 330 331 331 331 330 329 328 328 327 326 330 329 328 328 330 335 336 338
278 291 306 316 323 327 330 331 331 331 330 332 333 333 336 341 344 344 346 349 352 355
266 277 292 306 317 325 329 331 333 335 339 345 349 347 352 353 354 356 356 356 1 5
256 264 276 292 307 317 323 327 329 334 338 345 347 349 354 354 354 354 354 353 356 355
252 257 265 280 295 308 317 321 325 330 333 338 340 341 344 349 349 349 349 346 349 347
248 252 260 272 285 297 309 315 316 318 318 321 325 324 332 339 341 340 339 339 344 351
244 247 252 264 278 290 300 305 304 302 302 304 310 319 339 345 342 335 330 328 329 333
238 239 247 256 273 287 294 297 294 290 289 289 294 301 313 342 340 339 332 328 324 321
233 238 245 250 266 281 287 287 289 286 280 278 279 283 291 314 325 329 325 326 329 326
228 229 236 246 253 274 280 280 282 279 279 277 276 281 285 296 311 317 317 319 324 327